Location: Archamps
(46.1365°N, 6.1329°E)
Time: 17:55:43
(UTC+00:00)

Feng Yun 1-1 Rocket - Pass Details

Date: 28 January 2023
Orbit: 830 x 933 km, 99.1° (Epoch: 29 March)

Event Time Altitude Azimuth Distance (km) Brightness Sun altitude
Rises 18:45:36 0° 162° (SSE) 3,490 7.3 -22.8°
Reaches altitude 10° 18:48:01 10° 162° (SSE) 2,539 6.5 -23.2°
Maximum altitude 18:53:40 87° 75° (ENE) 875 4.1 -24.2°
Drops below altitude 10° 18:59:13 10° 346° (NNW) 2,490 6.8 -25.1°
Sets 19:01:34 0° 346° (NNW) 3,419 7.5 -25.5°
